Regional Weather Roundup
Issued by NWS

Home | Current Version | Previous Version | Graphics & Text | Print | Product List | Glossary On
Versions: 1 2 3 4 5 6 7 8 9 10 11 12 13 14 15 16 17 18 19 20 21 22 23 24 25 26 27 28 29 30 31 32 33 34 35 36 37 38 39 40 41 42 43 44 45 46 47 48 49 50
000
ASUS43 KTOP 231708
RWRKS

WEATHER ROUNDUP FOR KANSAS
NATIONAL WEATHER SERVICE GOODLAND KS
1200 PM CDT FRI JUN 23 2017

NOTE:  "FAIR" INDICATES FEW OR NO CLOUDS BELOW 12,000 FEET WITH NO
SIGNIFICANT WEATHER AND/OR OBSTRUCTIONS TO VISIBILITY.

KSZ001>006-013>018-027>032-041>047-231800-
NORTHWEST KANSAS

CITY           SKY/WX    TMP DP  RH WIND       PRES   REMARKS
GOODLAND       CLOUDY    63  45  51 N13G21    30.22R
HAYS           CLOUDY    67  49  52 N26       30.08F
HILL CITY      SUNNY     70  46  42 N17G25    30.14F
RUSSELL        CLOUDY    70  50  49 N18G26    30.07R
$$

KSZ061>065-074>080-084>089-231800-
SOUTHWEST KANSAS

CITY           SKY/WX    TMP DP  RH WIND       PRES   REMARKS
DODGE CITY     CLOUDY    67  52  58 N29G40    30.12R
ELKHART          N/A    N/A N/A N/A MISG        N/A
GARDEN CITY    CLOUDY    65  48  54 NE22G32   30.16R
GREAT BEND     CLOUDY    62  56  80 N16       30.06F
LIBERAL        SUNNY     72  52  49 NE25G31   30.14R
PRATT          SUNNY     73  49  44 N16G26    30.02F
$$

KSZ066>073-081>083-090>101-231800-
SOUTHEAST KANSAS

CITY           SKY/WX    TMP DP  RH WIND       PRES   REMARKS
CHANUTE        MOSUNNY   83  63  50 N20       29.91R
COFFEYVILLE    MOSUNNY   84  70  62 N18G25    29.86R
HUTCHINSON     CLOUDY    77  53  43 N23G31    30.04R
MEDICINE LODGE   N/A     83  46  27 NE23G41   29.98R
NEWTON         CLOUDY    77  50  38 N18G26    30.02R
PARSONS        MOSUNNY   80  68  66 N16G25    29.89R
WICHITA INTL   CLOUDY    82  52  35 N20G29    29.99R
WICHITA JABRA  CLOUDY    81  52  36 N22G29    29.97S
WICHITA MCCONL CLOUDY    81  51  34 NE23G29   29.97R
WINFIELD       SUNNY     84  53  34 NE26G40   29.94R
$$

KSZ007>012-019>026-033>040-048>060-102>105-231800-
NORTHEAST KANSAS

CITY           SKY/WX    TMP DP  RH WIND       PRES   REMARKS
CONCORDIA      CLOUDY    73  44  35 N21G28    30.07F
EMPORIA        CLOUDY    80  57  45 N13G22    29.95R
LAWRENCE       CLOUDY    79  61  53 NW16      29.93R
MANHATTAN      CLOUDY    76  52  43 N10G17    30.01F
MARYSVILLE     CLOUDY    72  50  46 N15G22    30.04F
OLATHE IND     MOSUNNY   79  58  48 N17G26    29.91R
OLATHE EXE     SUNNY     80  52  37 N20G26    29.90R
SALINA         CLOUDY    74  56  53 N17       30.02F
TOPEKA BILLARD CLOUDY    78  60  53 NW17G25   29.96R
TOPEKA FORBES  CLOUDY    80  58  46 N17G26    29.96R
$$



USA.gov is the U.S. government's official web portal to all federal, state and local government web resources and services.